Погода в Тверской

Россия / Краснодарский край     44°36′15″N   39°36′44″E
В апреле 2022 года жителям России запретили посещать сайт meteo.paraplan.net по решению Генеральной прокуратуры. Аудитория сайта уменьшилась в 10 раз. Владельцы сайта не видят смысла в поддержке погодного сервера в таких условиях. Сайт будет закрыт в октябре.
темп.,
°C
ветер,
м/с
пор.,
м/с
влажн.,
%
обл.,
%
осадки,
мм/ч
давл.,
гПа
погр.,
м
25 сентября, вс
вс2500:00+10юз3119458 2.9 1020419
03:00+9юз2496100 4.6 102197
06:00+8юз23955 0.1 102161
09:00+13зюз378328 0.4 1022899
12:00+16юз596927 0.6 10221382
15:00+17юз695549 0.8 10221735
18:00+14зюз49741 0.0 1022598
21:00+10юз22943 0.0 102324
26 сентября, пн
пн2600:00+8ююв22965 0.0 102222
03:00+8ююв22925 0.0 102222
06:00+7ююв22801 0.0 102118
09:00+15вюв23475 0.0 1020258
12:00+21всв1233100 0.0 10191130
15:00+22всв223199 0.0 10171159
18:00+15в2261100 0.0 101714
21:00+12ююв1168100 0.0 101611
27 сентября, вт
вт2700:00+10ю22670 0.0 101516
03:00+10ю214985 0.0 101412
06:00+10ю2140100 0.0 101312
09:00+17ю1239100 0.0 101280
12:00+23в1229100 0.0 1010463
15:00+26св2127100 0.0 1008785
18:00+17вюв115499 0.0 100811
21:00+15ю2157100 0.0 100811
28 сентября, ср
ср2800:00+15ю2246100 0.0 100716
03:00+16ююв222978 0.0 100515
06:00+15ююз1130100 0.0 100611
09:00+20юз013795 0.0 100669
12:00+26з3628100 0.0 10071106
15:00+25зюз3736100 0.0 10071048
18:00+19юз1164100 0.0 100911
21:00+17ю1176100 0.0 101021
29 сентября, чт
чт2900:00+16ю227699 0.0 101126
03:00+15ююз117280 0.0 101112
06:00+14ю117287 0.0 101213
09:00+21ююв11524 0.0 1012283
12:00+26ссв11440 0.0 10121337
15:00+26св134083 0.0 10111802
18:00+20св116924 0.0 101311
21:00+17зюз11800 0.0 101411